Weather Roundup
Issued by NWS

Home | Current Version | Previous Version | Text Only | Print | Product List | Glossary On
Versions: 1 2 3 4 5 6 7 8 9 10 11 12 13 14 15 16 17 18 19 20 21 22 23 24 25 26 27 28 29 30 31 32 33 34 35 36 37 38 39 40 41 42 43 44 45 46 47 48 49 50
000
NZUS93 KARX 231359
HRRWXR

CURRENT HOURLY OBSERVATIONS ACROSS
MUCH OF THE UPPER MISSISSIPPI VALLEY
NATIONAL WEATHER SERVICE LA CROSSE WI
900 AM CDT WED APR 23 2014


...SOUTHEAST MINNESOTA...


CITY           SKY/WX    TMP DP  RH WIND       PRES   REMARKS
ROCHESTER      CLOUDY    43  28  55 SE16G23   30.11S
ROCHESTER/MAYO FAIR      42  25  51 SE15G21   30.12S
WINONA         CLOUDY    43  32  65 SE9       30.15F
AUSTIN         CLOUDY    43  28  56 SE13      30.09F
ALBERT LEA     CLOUDY    43  30  61 SE15G23   30.07F
DODGE CENTER   CLOUDY    45  30  57 SE15      30.09F
PRESTON        CLOUDY    43  29  58 SE15      30.13F
OWATONNA       DRIZZLE   43  30  61 SE16      30.07F
FARIBAULT      CLOUDY    46  25  42 SE16G22   30.08F
$$

...ELSEWHERE IN MINNESOTA...


CITY           SKY/WX    TMP DP  RH WIND       PRES   REMARKS
MINNEAPOLIS    CLOUDY    44  28  53 SE14      30.09F
INTNL FALLS    PTSUNNY   44  24  45 SE7       30.08F
DULUTH         CLOUDY    38  26  62 E10       30.11S WCI  31
RED WING       CLOUDY    46  27  46 SE12      30.11F
REDWOOD FALLS  LGT RAIN  43  37  79 SE17      30.00S
MANKATO        CLOUDY    45  30  57 SE18      30.05F
WORTHINGTON    CLOUDY    45  30  57 SE23G30   29.94S
FAIRMONT       CLOUDY    45  30  57 SE18G25   30.04F
$$

...SOUTHWEST WISCONSIN...


CITY           SKY/WX    TMP DP  RH WIND       PRES   REMARKS
LA CROSSE      PTSUNNY   46  27  47 S13       30.16S
PRAIRIE DU CHI PTSUNNY   44  29  56 E8        30.16F
BOSCOBEL       MOSUNNY   46  29  51 E8        30.19R
LONE ROCK      NOT AVBL
PLATTEVILLE    MOSUNNY   41  31  69 SE7       30.18S
FORT MC COY    NOT AVBL
VIROQUA        FAIR      41  29  61 SE13      30.16R
WIS DELLS      MOSUNNY   40  27  59 E6        30.16S
$$

...ELSEWHERE IN WISCONSIN...


CITY           SKY/WX    TMP DP  RH WIND       PRES   REMARKS
MILWAUKEE      MOSUNNY   41  27  57 N10       30.19R
MADISON        PTSUNNY   43  27  53 NE8       30.17F
GREEN BAY      MOSUNNY   39  27  62 NE7       30.19F WCI  34
EAU CLAIRE     NOT AVBL
BLACK RVR FLS  FAIR      40  29  66 CALM      30.16S
MEDFORD        PTSUNNY   38  28  67 SE6       30.15R WCI  33
WAUSAU         PTSUNNY   40  27  59 E10       30.14F WCI  33
WIS RAPIDS     PTSUNNY   42  26  53 E9        30.18S
MARSHFIELD     PTSUNNY   41  27  57 SE10      30.15S
RICE LAKE      CLOUDY    38  28  69 SE10      30.15S WCI  31
$$

...NORTHEAST IOWA...


CITY           SKY/WX    TMP DP  RH WIND       PRES   REMARKS
WATERLOO       CLOUDY    44  30  57 SE10      30.13R
DUBUQUE        PTSUNNY   41  30  65 SE8       30.16R
DECORAH        CLOUDY    43  28  56 SE10G18   30.13S
MASON CITY     CLOUDY    44  33  65 SE16      30.09F
CHARLES CITY   CLOUDY    43  30  61 SE17      30.12F
OELWEIN        CLOUDY   N/A N/A N/A SE16      30.16R
$$

...ELSEWHERE IN IOWA...


CITY           SKY/WX    TMP DP  RH WIND       PRES   REMARKS
DES MOINES     CLOUDY    51  32  48 SE12      30.05F
IOWA CITY      CLOUDY    44  31  60 SE10      30.17R
FORT DODGE     CLOUDY    48  28  46 SE20      30.03R
MARSHALLTOWN   CLOUDY    44  32  62 SE21      30.10R
CEDAR RAPIDS   CLOUDY    44  31  60 SE13      30.13R
$$

...NORTHERN ILLINOIS...


CITY           SKY/WX    TMP DP  RH WIND       PRES   REMARKS
CHICAGO-OHARE  MOSUNNY   42  25  50 NE15      30.18R
DUPAGE         SUNNY     41  28  60 NE14G21   30.17R
CHICAGO-MIDWAY MOSUNNY   42  28  57 NE13      30.18R
MOLINE         MOSUNNY   45  31  58 E12       30.17R
ROCKFORD       MOSUNNY   43  27  53 E10       30.19F
STERLING       PTSUNNY   43  30  61 E8        30.17F
PEORIA         SUNNY     46  29  51 E9        30.17S
$$

NOTE: "FAIR" INDICATES FEW OR NO CLOUDS BELOW 12,000 FEET WITH NO
SIGNIFICANT WEATHER AND/OR OBSTRUCTIONS TO VISIBILITY. WIND
SPEEDS ARE IN MILES-PER-HOUR.



USA.gov is the U.S. government's official web portal to all federal, state and local government web resources and services.